User: anonymous   Login
Location: Myra
(43.4160°N, 88.0960°W)
Time: 14:41:28
(UTC-05:00)
Language:

SL-8 R/B - Orbit

View from above orbital plane
View from above orbital plane
View from above satellite
View from above satellite

Ground track
Ground track

The orbit data is extracted from the following two-line orbital elements,

1 33066U 08031G   18109.40512917 -.00000157  00000-0  65377-5 0  9995
2 33066  48.4427 117.9888 0008045 326.2962 173.1568 14.69601658527795
Epoch (UTC): 19 April 2018 09:43:23
Eccentricity: 0.0008045
inclination: 48.4427°
perigee height: 656 km
apogee height: 668 km
right ascension of ascending node: 117.9888°
argument of perigee: 326.2962°
revolutions per day: 14.69601658
mean anomaly at epoch: 173.1568°
orbit number at epoch: 52779

The dashed part of the orbit path shows where the satellite is in the earth's shadow,  

DLR